Location: ?ejeti?ky
(50.4060°N, 14.9016°E)
Time: 22:29:28
(UTC+00:00)

STARLINK-1364 - Pass Details

Date: 07 October 2020
Orbit: 548 x 551 km, 53.0° (Epoch: 23 October)

Event Time Altitude Azimuth Distance (km) Brightness Sun altitude
Exits shadow 01:18:59 12° 77° (ENE) 1,713 6.7 -35.3°
Drops below altitude 10° 01:19:17 10° 78° (ENE) 1,828 6.9 -35.2°
Sets 01:21:33 0° 82° (E) 2,723 7.9 -35.0°
